Time,TemperatureF,DewpointF,PressureIn,WindDirection,WindDirectionDegrees,WindSpeedMPH,WindSpeedGustMPH,Humidity,HourlyPrecipIn,Conditions,Clouds,dailyrainin,SoftwareType,DateUTC
2013-10-06 00:01:00,44.2,44.2,29.69,NE,42,0.0,0.0,100,0.00,,---,0.00,VWS V14.01,2013-10-06 05:01:00,
2013-10-06 00:06:00,44.1,44.1,29.69,NE,42,0.0,0.0,100,0.00,,---,0.00,VWS V14.01,2013-10-06 05:06:00,
2013-10-06 00:11:00,44.1,44.1,29.69,NE,42,0.0,0.0,100,0.00,,---,0.00,VWS V14.01,2013-10-06 05:11:00,
2013-10-06 00:16:00,43.9,43.9,29.69,NE,42,0.0,0.0,100,0.00,,---,0.00,VWS V14.01,2013-10-06 05:16:00,
2013-10-06 00:21:00,43.9,43.9,29.69,NE,42,0.0,0.0,100,0.00,,---,0.00,VWS V14.01,2013-10-06 05:21:00,
2013-10-06 00:26:00,43.9,43.9,29.69,NE,42,0.0,0.0,100,0.00,,---,0.00,VWS V14.01,2013-10-06 05:26:00,
2013-10-06 00:31:00,43.9,43.9,29.68,NE,42,0.0,0.0,100,0.00,,---,0.00,VWS V14.01,2013-10-06 05:31:00,
2013-10-06 00:36:00,44.1,44.1,29.68,NE,42,0.0,0.0,100,0.00,,---,0.00,VWS V14.01,2013-10-06 05:36:00,
2013-10-06 00:41:00,44.2,44.2,29.68,NE,42,0.0,0.0,100,0.00,,---,0.00,VWS V14.01,2013-10-06 05:41:00,
2013-10-06 00:46:00,44.3,44.3,29.68,NE,42,0.0,0.0,100,0.00,,---,0.00,VWS V14.01,2013-10-06 05:46:00,
2013-10-06 00:51:00,44.6,44.6,29.68,NE,42,0.0,0.0,100,0.00,,---,0.00,VWS V14.01,2013-10-06 05:51:00,
2013-10-06 00:56:00,44.8,44.8,29.68,NE,42,0.0,0.0,100,0.00,,---,0.00,VWS V14.01,2013-10-06 05:56:00,
2013-10-06 01:01:00,45.2,45.2,29.67,NE,42,0.0,0.0,100,0.00,,---,0.00,VWS V14.01,2013-10-06 06:01:00,
2013-10-06 01:06:00,45.4,45.4,29.67,NE,45,0.0,0.0,100,0.00,,---,0.00,VWS V14.01,2013-10-06 06:06:00,
2013-10-06 01:11:00,45.5,45.5,29.67,NE,44,0.0,1.0,100,0.00,,---,0.00,VWS V14.01,2013-10-06 06:11:00,
2013-10-06 01:16:00,45.5,45.5,29.67,NE,44,0.0,1.0,100,0.00,,---,0.00,VWS V14.01,2013-10-06 06:16:00,
2013-10-06 01:21:00,45.5,45.5,29.67,NE,44,0.0,0.0,100,0.00,,---,0.00,VWS V14.01,2013-10-06 06:21:00,
2013-10-06 01:26:00,45.5,45.5,29.67,NE,44,0.0,0.0,100,0.00,,---,0.00,VWS V14.01,2013-10-06 06:26:00,
2013-10-06 01:31:00,45.5,45.5,29.67,NE,44,0.0,0.0,100,0.00,,---,0.00,VWS V14.01,2013-10-06 06:31:00,
2013-10-06 01:36:00,45.7,45.7,29.67,NE,44,0.0,0.0,100,0.00,,---,0.00,VWS V14.01,2013-10-06 06:36:00,
2013-10-06 01:41:00,45.7,45.7,29.67,NE,44,0.0,0.0,100,0.00,,---,0.00,VWS V14.01,2013-10-06 06:41:00,
2013-10-06 01:46:00,45.7,45.7,29.67,NE,44,0.0,0.0,100,0.00,,---,0.00,VWS V14.01,2013-10-06 06:46:00,
2013-10-06 01:51:00,45.5,45.5,29.67,NE,44,0.0,0.0,100,0.00,,---,0.00,VWS V14.01,2013-10-06 06:51:00,
2013-10-06 01:56:00,45.4,45.4,29.67,NE,44,0.0,0.0,100,0.00,,---,0.00,VWS V14.01,2013-10-06 06:56:00,
2013-10-06 02:01:00,45.5,45.5,29.66,NE,44,0.0,0.0,100,0.00,,---,0.00,VWS V14.01,2013-10-06 07:01:00,
2013-10-06 02:05:00,45.7,45.7,29.66,NE,44,0.0,0.0,100,0.01,,---,0.01,VWS V14.01,2013-10-06 07:05:00,
2013-10-06 02:10:00,45.7,45.7,29.66,NE,44,0.0,0.0,100,0.01,,---,0.01,VWS V14.01,2013-10-06 07:10:00,
2013-10-06 02:15:00,45.8,45.8,29.66,NE,42,0.0,0.0,100,0.01,,---,0.01,VWS V14.01,2013-10-06 07:15:00,
2013-10-06 02:20:00,45.8,45.8,29.66,NE,42,0.0,0.0,100,0.01,,---,0.01,VWS V14.01,2013-10-06 07:20:00,
2013-10-06 02:25:00,45.8,45.8,29.66,NE,42,0.0,0.0,100,0.01,,---,0.01,VWS V14.01,2013-10-06 07:25:00,
2013-10-06 02:30:00,45.8,45.8,29.66,NE,42,0.0,0.0,100,0.01,,---,0.01,VWS V14.01,2013-10-06 07:30:00,
2013-10-06 02:35:00,46.0,46.0,29.66,NE,42,0.0,0.0,100,0.01,,---,0.01,VWS V14.01,2013-10-06 07:35:00,
2013-10-06 02:40:00,46.0,46.0,29.66,NE,42,0.0,0.0,100,0.01,,---,0.01,VWS V14.01,2013-10-06 07:40:00,
2013-10-06 02:45:00,46.1,46.1,29.65,NE,42,0.0,0.0,100,0.01,,---,0.01,VWS V14.01,2013-10-06 07:45:00,
2013-10-06 02:50:00,46.1,46.1,29.65,NE,42,0.0,0.0,100,0.01,,---,0.01,VWS V14.01,2013-10-06 07:50:00,
2013-10-06 02:55:00,46.1,46.1,29.65,NE,42,0.0,0.0,100,0.01,,---,0.01,VWS V14.01,2013-10-06 07:55:00,
2013-10-06 03:00:00,46.1,46.1,29.64,NE,41,1.0,1.0,100,0.01,,---,0.01,VWS V14.01,2013-10-06 08:00:00,
2013-10-06 03:05:00,46.1,46.1,29.64,NE,40,0.0,1.0,100,0.01,,---,0.01,VWS V14.01,2013-10-06 08:05:00,
2013-10-06 03:10:00,46.1,46.1,29.64,NNE,28,1.0,1.0,100,0.00,,---,0.01,VWS V14.01,2013-10-06 08:10:00,
2013-10-06 03:15:00,46.2,46.2,29.64,North,11,2.0,3.0,100,0.00,,---,0.01,VWS V14.01,2013-10-06 08:15:00,
2013-10-06 03:20:00,46.2,46.2,29.64,North,1,0.0,1.0,100,0.00,,---,0.01,VWS V14.01,2013-10-06 08:20:00,
2013-10-06 03:25:00,46.2,46.2,29.64,North,6,0.0,5.0,100,0.00,,---,0.01,VWS V14.01,2013-10-06 08:25:00,
2013-10-06 03:30:00,46.1,46.1,29.63,NNW,332,0.0,0.0,100,0.00,,---,0.01,VWS V14.01,2013-10-06 08:30:00,
2013-10-06 03:35:00,46.2,46.2,29.63,NNW,332,0.0,0.0,100,0.00,,---,0.01,VWS V14.01,2013-10-06 08:35:00,
2013-10-06 03:40:00,46.2,46.2,29.63,NNW,332,0.0,0.0,100,0.00,,---,0.01,VWS V14.01,2013-10-06 08:40:00,
2013-10-06 03:45:00,46.4,46.4,29.64,NNW,332,0.0,0.0,100,0.00,,---,0.01,VWS V14.01,2013-10-06 08:45:00,
2013-10-06 03:50:00,46.4,46.4,29.64,NNW,330,0.0,0.0,100,0.00,,---,0.01,VWS V14.01,2013-10-06 08:50:00,
2013-10-06 03:55:00,46.5,46.5,29.64,NNW,330,0.0,0.0,100,0.00,,---,0.01,VWS V14.01,2013-10-06 08:55:00,
2013-10-06 04:00:00,46.5,46.5,29.63,NNW,330,0.0,0.0,100,0.00,,---,0.01,VWS V14.01,2013-10-06 09:00:00,
2013-10-06 04:05:00,46.5,46.5,29.63,NNW,344,0.0,1.0,100,0.00,,---,0.01,VWS V14.01,2013-10-06 09:05:00,
2013-10-06 04:09:00,46.7,46.7,29.63,NNW,342,0.0,1.0,100,0.00,,---,0.01,VWS V14.01,2013-10-06 09:09:00,
2013-10-06 04:14:00,46.7,46.7,29.63,North,357,0.0,2.0,100,0.00,,---,0.01,VWS V14.01,2013-10-06 09:14:00,
2013-10-06 04:19:00,46.8,46.8,29.63,North,357,0.0,2.0,100,0.00,,---,0.01,VWS V14.01,2013-10-06 09:19:00,
2013-10-06 04:24:00,46.8,46.8,29.63,North,357,0.0,0.0,100,0.00,,---,0.01,VWS V14.01,2013-10-06 09:24:00,
2013-10-06 04:29:00,47.0,47.0,29.63,North,357,0.0,0.0,100,0.00,,---,0.01,VWS V14.01,2013-10-06 09:29:00,
2013-10-06 04:34:00,47.0,47.0,29.64,North,357,0.0,0.0,100,0.00,,---,0.01,VWS V14.01,2013-10-06 09:34:00,
2013-10-06 04:38:00,47.1,47.1,29.64,North,357,0.0,0.0,100,0.00,,---,0.01,VWS V14.01,2013-10-06 09:38:00,
2013-10-06 04:43:00,47.1,47.1,29.64,North,357,0.0,0.0,100,0.00,,---,0.01,VWS V14.01,2013-10-06 09:43:00,
2013-10-06 04:48:00,47.1,47.1,29.63,North,357,0.0,0.0,100,0.00,,---,0.01,VWS V14.01,2013-10-06 09:48:00,
2013-10-06 04:53:00,47.1,47.1,29.63,North,357,0.0,0.0,100,0.00,,---,0.01,VWS V14.01,2013-10-06 09:53:00,
2013-10-06 04:58:00,47.3,47.3,29.63,North,1,0.0,3.0,100,0.00,,---,0.01,VWS V14.01,2013-10-06 09:58:00,
2013-10-06 05:03:00,47.6,47.6,29.63,North,3,1.0,2.0,100,0.01,,---,0.02,VWS V14.01,2013-10-06 10:03:00,
2013-10-06 05:08:00,47.7,47.7,29.63,NNE,20,4.0,5.0,100,0.01,,---,0.02,VWS V14.01,2013-10-06 10:08:00,
2013-10-06 05:13:00,47.9,47.9,29.63,NE,37,3.0,4.0,100,0.02,,---,0.03,VWS V14.01,2013-10-06 10:13:00,
2013-10-06 05:18:00,48.0,48.0,29.63,NE,38,3.0,6.0,100,0.02,,---,0.03,VWS V14.01,2013-10-06 10:18:00,
2013-10-06 05:23:00,48.0,48.0,29.63,NE,54,6.0,10.0,100,0.03,,---,0.04,VWS V14.01,2013-10-06 10:23:00,
2013-10-06 05:28:00,48.0,48.0,29.63,NNE,28,5.0,10.0,100,0.03,,---,0.04,VWS V14.01,2013-10-06 10:28:00,
2013-10-06 05:33:00,47.9,47.9,29.63,NNE,20,4.0,6.0,100,0.03,,---,0.04,VWS V14.01,2013-10-06 10:33:00,
2013-10-06 05:38:00,47.9,47.9,29.63,NE,51,0.0,6.0,100,0.04,,---,0.05,VWS V14.01,2013-10-06 10:38:00,
2013-10-06 05:43:00,47.9,47.9,29.63,ENE,62,2.0,6.0,100,0.04,,---,0.05,VWS V14.01,2013-10-06 10:43:00,
2013-10-06 05:48:00,47.9,47.9,29.63,NE,54,6.0,7.0,100,0.04,,---,0.05,VWS V14.01,2013-10-06 10:48:00,
2013-10-06 05:53:00,47.9,47.9,29.63,ENE,73,1.0,2.0,100,0.04,,---,0.05,VWS V14.01,2013-10-06 10:53:00,
2013-10-06 05:58:00,47.9,47.9,29.63,ENE,66,1.0,3.0,100,0.05,,---,0.06,VWS V14.01,2013-10-06 10:58:00,
2013-10-06 06:03:00,47.9,47.9,29.64,ENE,75,0.0,6.0,100,0.05,,---,0.06,VWS V14.01,2013-10-06 11:03:00,
2013-10-06 06:08:00,48.0,48.0,29.64,NE,45,2.0,6.0,100,0.05,,---,0.06,VWS V14.01,2013-10-06 11:08:00,
2013-10-06 06:13:00,48.0,48.0,29.64,NE,54,2.0,3.0,100,0.04,,---,0.07,VWS V14.01,2013-10-06 11:13:00,
2013-10-06 06:18:00,48.0,48.0,29.65,ENE,72,0.0,5.0,100,0.04,,---,0.07,VWS V14.01,2013-10-06 11:18:00,
2013-10-06 06:23:00,48.0,48.0,29.65,ENE,76,0.0,4.0,100,0.03,,---,0.07,VWS V14.01,2013-10-06 11:23:00,
2013-10-06 06:28:00,47.9,47.9,29.65,ENE,78,3.0,6.0,100,0.03,,---,0.07,VWS V14.01,2013-10-06 11:28:00,
2013-10-06 06:33:00,47.9,47.9,29.65,East,89,3.0,6.0,100,0.03,,---,0.07,VWS V14.01,2013-10-06 11:33:00,
2013-10-06 06:38:00,47.7,47.7,29.65,NE,52,4.0,6.0,100,0.03,,---,0.07,VWS V14.01,2013-10-06 11:38:00,
2013-10-06 06:43:00,47.7,47.7,29.65,ENE,71,0.0,3.0,100,0.02,,---,0.07,VWS V14.01,2013-10-06 11:43:00,
2013-10-06 06:48:00,47.7,47.7,29.65,East,80,0.0,4.0,100,0.02,,---,0.07,VWS V14.01,2013-10-06 11:48:00,
2013-10-06 06:53:00,47.7,47.7,29.65,NE,55,1.0,8.0,100,0.02,,---,0.07,VWS V14.01,2013-10-06 11:53:00,
2013-10-06 06:58:00,47.7,47.7,29.65,ENE,62,2.0,8.0,100,0.02,,---,0.07,VWS V14.01,2013-10-06 11:58:00,
2013-10-06 07:03:00,47.7,47.7,29.65,ENE,64,0.0,6.0,100,0.01,,---,0.07,VWS V14.01,2013-10-06 12:03:00,
2013-10-06 07:08:00,47.6,47.6,29.65,NE,47,2.0,6.0,100,0.01,,---,0.07,VWS V14.01,2013-10-06 12:08:00,
2013-10-06 07:13:00,47.6,47.6,29.65,NE,48,3.0,5.0,100,0.01,,---,0.07,VWS V14.01,2013-10-06 12:13:00,
2013-10-06 07:18:00,47.6,47.6,29.64,NE,49,3.0,6.0,100,0.01,,---,0.07,VWS V14.01,2013-10-06 12:18:00,
2013-10-06 07:23:00,47.6,47.6,29.64,NNE,25,3.0,8.0,100,0.00,,---,0.07,VWS V14.01,2013-10-06 12:23:00,
2013-10-06 07:28:00,47.4,47.4,29.64,NE,37,4.0,8.0,100,0.00,,---,0.07,VWS V14.01,2013-10-06 12:28:00,
2013-10-06 07:33:00,47.4,47.4,29.65,NE,40,2.0,7.0,100,0.00,,---,0.07,VWS V14.01,2013-10-06 12:33:00,
2013-10-06 07:38:00,47.4,47.4,29.65,NE,40,6.0,8.0,100,0.00,,---,0.07,VWS V14.01,2013-10-06 12:38:00,
2013-10-06 07:43:00,47.4,47.4,29.65,NE,55,1.0,11.0,100,0.00,,---,0.07,VWS V14.01,2013-10-06 12:43:00,
2013-10-06 07:48:00,47.4,47.4,29.65,NE,35,3.0,11.0,100,0.00,,---,0.07,VWS V14.01,2013-10-06 12:48:00,
2013-10-06 07:53:00,47.4,47.4,29.65,NE,54,2.0,6.0,100,0.00,,---,0.07,VWS V14.01,2013-10-06 12:53:00,
2013-10-06 07:58:00,47.4,47.4,29.65,NE,55,6.0,7.0,100,0.00,,---,0.07,VWS V14.01,2013-10-06 12:58:00,
2013-10-06 08:03:00,47.4,47.4,29.66,NE,52,1.0,6.0,100,0.00,,---,0.07,VWS V14.01,2013-10-06 13:03:00,
2013-10-06 08:08:00,47.3,47.3,29.66,NE,42,2.0,11.0,100,0.00,,---,0.07,VWS V14.01,2013-10-06 13:08:00,
2013-10-06 08:13:00,47.3,47.3,29.66,NE,48,5.0,7.0,100,0.00,,---,0.07,VWS V14.01,2013-10-06 13:13:00,
2013-10-06 08:18:00,47.3,47.3,29.67,NE,35,5.0,8.0,100,0.00,,---,0.07,VWS V14.01,2013-10-06 13:18:00,
2013-10-06 08:23:00,47.3,47.3,29.67,NNE,23,7.0,10.0,100,0.00,,---,0.07,VWS V14.01,2013-10-06 13:23:00,
2013-10-06 08:28:00,47.3,47.3,29.67,NE,47,5.0,10.0,100,0.00,,---,0.07,VWS V14.01,2013-10-06 13:28:00,
2013-10-06 08:33:00,47.3,47.3,29.67,NE,52,6.0,8.0,100,0.00,,---,0.07,VWS V14.01,2013-10-06 13:33:00,
2013-10-06 08:38:00,47.3,47.3,29.67,NE,49,4.0,8.0,100,0.01,,---,0.08,VWS V14.01,2013-10-06 13:38:00,
2013-10-06 08:43:00,47.4,47.4,29.67,ENE,61,1.0,5.0,100,0.01,,---,0.08,VWS V14.01,2013-10-06 13:43:00,
2013-10-06 08:48:00,47.4,47.4,29.67,ENE,58,6.0,7.0,100,0.01,,---,0.08,VWS V14.01,2013-10-06 13:48:00,
2013-10-06 08:53:00,47.4,47.4,29.67,NE,35,7.0,7.0,100,0.01,,---,0.08,VWS V14.01,2013-10-06 13:53:00,
2013-10-06 08:58:00,47.4,47.4,29.67,NE,48,2.0,7.0,100,0.01,,---,0.08,VWS V14.01,2013-10-06 13:58:00,
2013-10-06 09:03:00,47.6,47.6,29.67,NE,34,5.0,10.0,100,0.02,,---,0.09,VWS V14.01,2013-10-06 14:03:00,
2013-10-06 09:08:00,47.7,47.7,29.67,NE,49,1.0,10.0,100,0.02,,---,0.09,VWS V14.01,2013-10-06 14:08:00,
2013-10-06 09:13:00,47.9,47.9,29.67,ENE,59,1.0,7.0,100,0.03,,---,0.10,VWS V14.01,2013-10-06 14:13:00,
2013-10-06 09:18:00,47.9,47.9,29.67,NE,52,0.0,7.0,100,0.03,,---,0.10,VWS V14.01,2013-10-06 14:18:00,
2013-10-06 09:23:00,47.9,47.9,29.67,NE,49,2.0,4.0,100,0.03,,---,0.10,VWS V14.01,2013-10-06 14:23:00,
2013-10-06 09:28:00,48.0,48.0,29.67,ENE,66,0.0,6.0,100,0.03,,---,0.10,VWS V14.01,2013-10-06 14:28:00,
2013-10-06 09:33:00,48.0,48.0,29.68,NE,51,4.0,7.0,100,0.03,,---,0.10,VWS V14.01,2013-10-06 14:33:00,
2013-10-06 09:38:00,48.3,48.3,29.68,NE,42,3.0,7.0,100,0.03,,---,0.10,VWS V14.01,2013-10-06 14:38:00,
2013-10-06 09:43:00,48.5,48.5,29.68,ENE,58,2.0,7.0,100,0.02,,---,0.10,VWS V14.01,2013-10-06 14:43:00,
2013-10-06 09:48:00,48.5,48.5,29.67,NNE,28,7.0,9.0,100,0.03,,---,0.11,VWS V14.01,2013-10-06 14:48:00,
2013-10-06 09:53:00,48.3,48.3,29.67,East,97,2.0,13.0,100,0.03,,---,0.11,VWS V14.01,2013-10-06 14:53:00,
2013-10-06 09:58:00,48.3,48.3,29.67,ENE,59,0.0,13.0,100,0.03,,---,0.11,VWS V14.01,2013-10-06 14:58:00,
2013-10-06 10:03:00,48.6,48.6,29.68,ESE,113,2.0,8.0,100,0.03,,---,0.11,VWS V14.01,2013-10-06 15:03:00,
2013-10-06 10:08:00,49.1,49.1,29.68,NE,48,7.0,10.0,100,0.03,,---,0.11,VWS V14.01,2013-10-06 15:08:00,
2013-10-06 10:13:00,49.1,49.1,29.68,NE,54,9.0,10.0,100,0.02,,---,0.11,VWS V14.01,2013-10-06 15:13:00,
2013-10-06 10:18:00,49.2,49.2,29.67,ENE,61,5.0,12.0,100,0.02,,---,0.11,VWS V14.01,2013-10-06 15:18:00,
2013-10-06 10:23:00,49.2,49.2,29.67,NE,37,2.0,12.0,100,0.01,,---,0.11,VWS V14.01,2013-10-06 15:23:00,
2013-10-06 10:28:00,49.2,49.2,29.67,NE,42,6.0,12.0,100,0.01,,---,0.11,VWS V14.01,2013-10-06 15:28:00,
2013-10-06 10:33:00,49.1,49.1,29.67,NE,34,10.0,10.0,100,0.01,,---,0.11,VWS V14.01,2013-10-06 15:33:00,
2013-10-06 10:38:00,49.1,49.1,29.67,NE,52,6.0,10.0,100,0.01,,---,0.11,VWS V14.01,2013-10-06 15:38:00,
2013-10-06 10:43:00,49.1,49.1,29.67,ENE,59,6.0,8.0,100,0.01,,---,0.11,VWS V14.01,2013-10-06 15:43:00,
2013-10-06 10:48:00,48.9,48.9,29.68,NNE,31,7.0,10.0,100,0.01,,---,0.11,VWS V14.01,2013-10-06 15:48:00,
2013-10-06 10:53:00,49.1,49.1,29.68,East,88,8.0,8.0,100,0.00,,---,0.11,VWS V14.01,2013-10-06 15:53:00,
2013-10-06 10:58:00,49.1,49.1,29.68,East,79,3.0,10.0,100,0.00,,---,0.11,VWS V14.01,2013-10-06 15:58:00,
2013-10-06 11:03:00,48.9,48.9,29.68,NE,41,9.0,11.0,100,0.00,,---,0.11,VWS V14.01,2013-10-06 16:03:00,
2013-10-06 11:08:00,48.9,48.9,29.68,NNE,31,5.0,12.0,100,0.00,,---,0.11,VWS V14.01,2013-10-06 16:08:00,
2013-10-06 11:13:00,49.1,49.1,29.68,ENE,68,2.0,11.0,100,0.00,,---,0.11,VWS V14.01,2013-10-06 16:13:00,
2013-10-06 11:18:00,49.2,49.2,29.68,NE,56,5.0,11.0,100,0.00,,---,0.11,VWS V14.01,2013-10-06 16:18:00,
2013-10-06 11:22:00,49.2,48.9,29.68,NE,54,3.0,8.0,99,0.00,,---,0.11,VWS V14.01,2013-10-06 16:22:00,
2013-10-06 11:27:00,49.2,48.9,29.68,NE,38,6.0,10.0,99,0.00,,---,0.11,VWS V14.01,2013-10-06 16:27:00,
2013-10-06 11:32:00,49.6,49.3,29.68,NE,56,8.0,8.0,99,0.00,,---,0.11,VWS V14.01,2013-10-06 16:32:00,
2013-10-06 11:37:00,49.5,49.2,29.68,NE,48,7.0,10.0,99,0.00,,---,0.11,VWS V14.01,2013-10-06 16:37:00,
2013-10-06 11:42:00,49.5,49.0,29.68,ENE,58,7.0,10.0,98,0.00,,---,0.11,VWS V14.01,2013-10-06 16:42:00,
2013-10-06 11:47:00,49.2,48.7,29.68,NNE,27,6.0,12.0,98,0.00,,---,0.11,VWS V14.01,2013-10-06 16:47:00,
2013-10-06 11:52:00,48.8,48.3,29.68,NNE,16,11.0,16.0,98,0.00,,---,0.11,VWS V14.01,2013-10-06 16:52:00,
2013-10-06 11:57:00,48.5,48.0,29.68,North,8,11.0,16.0,98,0.00,,---,0.11,VWS V14.01,2013-10-06 16:57:00,
2013-10-06 12:02:00,48.6,48.1,29.69,NE,38,8.0,8.0,98,0.00,,---,0.11,VWS V14.01,2013-10-06 17:02:00,
2013-10-06 12:07:00,48.5,48.0,29.69,NE,51,7.0,14.0,98,0.00,,---,0.11,VWS V14.01,2013-10-06 17:07:00,
2013-10-06 12:12:00,48.6,48.1,29.69,NNE,28,3.0,12.0,98,0.00,,---,0.11,VWS V14.01,2013-10-06 17:12:00,
2013-10-06 12:17:00,49.1,48.8,29.69,ENE,59,2.0,12.0,99,0.00,,---,0.11,VWS V14.01,2013-10-06 17:17:00,
2013-10-06 12:22:00,49.2,48.7,29.69,NNE,28,7.0,11.0,98,0.00,,---,0.11,VWS V14.01,2013-10-06 17:22:00,
2013-10-06 12:27:00,49.6,49.1,29.69,ENE,75,8.0,11.0,98,0.00,,---,0.11,VWS V14.01,2013-10-06 17:27:00,
2013-10-06 12:32:00,49.6,48.5,29.69,NE,37,10.0,11.0,96,0.00,,---,0.11,VWS V14.01,2013-10-06 17:32:00,
2013-10-06 12:37:00,49.5,48.1,29.69,NE,42,3.0,13.0,95,0.00,,---,0.11,VWS V14.01,2013-10-06 17:37:00,
2013-10-06 12:42:00,49.8,48.4,29.69,NNE,31,2.0,10.0,95,0.00,,---,0.11,VWS V14.01,2013-10-06 17:42:00,
2013-10-06 12:47:00,49.8,48.2,29.69,NE,42,4.0,12.0,94,0.00,,---,0.11,VWS V14.01,2013-10-06 17:47:00,
2013-10-06 12:52:00,49.6,47.7,29.69,NE,40,8.0,13.0,93,0.00,,---,0.11,VWS V14.01,2013-10-06 17:52:00,
2013-10-06 12:57:00,49.6,47.7,29.69,NE,41,5.0,13.0,93,0.00,,---,0.11,VWS V14.01,2013-10-06 17:57:00,
2013-10-06 13:02:00,49.8,47.6,29.69,NE,44,6.0,10.0,92,0.00,,---,0.11,VWS V14.01,2013-10-06 18:02:00,
2013-10-06 13:07:00,49.8,47.3,29.69,NNE,18,10.0,14.0,91,0.00,,---,0.11,VWS V14.01,2013-10-06 18:07:00,
2013-10-06 13:12:00,49.6,47.1,29.69,NE,40,4.0,11.0,91,0.00,,---,0.11,VWS V14.01,2013-10-06 18:12:00,
2013-10-06 13:17:00,49.5,47.0,29.69,NNE,31,11.0,12.0,91,0.00,,---,0.11,VWS V14.01,2013-10-06 18:17:00,
2013-10-06 13:22:00,49.1,47.2,29.69,NNE,25,8.0,12.0,93,0.00,,---,0.11,VWS V14.01,2013-10-06 18:22:00,
2013-10-06 13:27:00,48.6,47.0,29.69,NNE,18,10.0,13.0,94,0.00,,---,0.11,VWS V14.01,2013-10-06 18:27:00,
2013-10-06 13:32:00,48.3,46.9,29.70,NE,41,11.0,11.0,95,0.00,,---,0.11,VWS V14.01,2013-10-06 18:32:00,
2013-10-06 13:37:00,48.0,46.9,29.70,NNE,23,10.0,13.0,96,0.00,,---,0.11,VWS V14.01,2013-10-06 18:37:00,
2013-10-06 13:42:00,48.0,47.2,29.70,NE,42,5.0,12.0,97,0.00,,---,0.11,VWS V14.01,2013-10-06 18:42:00,
2013-10-06 13:47:00,48.0,47.2,29.70,NNE,23,7.0,12.0,97,0.00,,---,0.11,VWS V14.01,2013-10-06 18:47:00,
2013-10-06 13:52:00,48.0,47.2,29.70,NNE,32,6.0,11.0,97,0.00,,---,0.11,VWS V14.01,2013-10-06 18:52:00,
2013-10-06 13:57:00,48.0,46.9,29.70,NE,52,6.0,14.0,96,0.00,,---,0.11,VWS V14.01,2013-10-06 18:57:00,
2013-10-06 14:02:00,48.0,46.9,29.70,NNE,31,3.0,7.0,96,0.00,,---,0.11,VWS V14.01,2013-10-06 19:02:00,
2013-10-06 14:07:00,48.0,46.9,29.70,NE,35,10.0,13.0,96,0.00,,---,0.11,VWS V14.01,2013-10-06 19:07:00,
2013-10-06 14:12:00,48.0,46.9,29.70,ENE,58,2.0,8.0,96,0.00,,---,0.11,VWS V14.01,2013-10-06 19:12:00,
2013-10-06 14:17:00,48.3,46.9,29.70,ENE,66,6.0,12.0,95,0.00,,---,0.11,VWS V14.01,2013-10-06 19:17:00,
2013-10-06 14:22:00,48.5,46.6,29.70,NE,42,5.0,9.0,93,0.00,,---,0.11,VWS V14.01,2013-10-06 19:22:00,
2013-10-06 14:27:00,48.6,46.7,29.70,ENE,65,6.0,12.0,93,0.00,,---,0.11,VWS V14.01,2013-10-06 19:27:00,
2013-10-06 14:32:00,48.5,46.0,29.70,NE,38,10.0,14.0,91,0.00,,---,0.11,VWS V14.01,2013-10-06 19:32:00,
2013-10-06 14:37:00,48.5,46.3,29.70,ENE,65,7.0,14.0,92,0.00,,---,0.11,VWS V14.01,2013-10-06 19:37:00,
2013-10-06 14:42:00,48.3,45.8,29.70,NE,34,6.0,12.0,91,0.00,,---,0.11,VWS V14.01,2013-10-06 19:42:00,
2013-10-06 14:47:00,48.0,45.5,29.70,ENE,59,10.0,16.0,91,0.00,,---,0.11,VWS V14.01,2013-10-06 19:47:00,
2013-10-06 14:52:00,48.0,45.8,29.70,NE,44,4.0,11.0,92,0.00,,---,0.11,VWS V14.01,2013-10-06 19:52:00,
2013-10-06 14:57:00,48.0,46.1,29.70,NE,34,7.0,11.0,93,0.00,,---,0.11,VWS V14.01,2013-10-06 19:57:00,
2013-10-06 15:02:00,47.9,46.3,29.70,NE,44,6.0,6.0,94,0.00,,---,0.11,VWS V14.01,2013-10-06 20:02:00,
2013-10-06 15:07:00,47.7,46.6,29.70,NNE,31,3.0,7.0,96,0.01,,---,0.12,VWS V14.01,2013-10-06 20:07:00,
2013-10-06 15:12:00,47.6,46.8,29.70,NE,34,5.0,10.0,97,0.01,,---,0.12,VWS V14.01,2013-10-06 20:12:00,
2013-10-06 15:17:00,47.4,46.6,29.71,NE,41,2.0,10.0,97,0.02,,---,0.13,VWS V14.01,2013-10-06 20:17:00,
2013-10-06 15:22:00,47.4,46.9,29.71,NNE,27,6.0,7.0,98,0.02,,---,0.13,VWS V14.01,2013-10-06 20:22:00,
2013-10-06 15:27:00,47.3,46.8,29.71,NNE,31,2.0,10.0,98,0.03,,---,0.14,VWS V14.01,2013-10-06 20:27:00,
2013-10-06 15:32:00,47.3,46.8,29.71,NE,35,3.0,8.0,98,0.03,,---,0.14,VWS V14.01,2013-10-06 20:32:00,
2013-10-06 15:37:00,47.3,46.8,29.71,NNE,32,12.0,12.0,98,0.04,,---,0.15,VWS V14.01,2013-10-06 20:37:00,
2013-10-06 15:42:00,47.1,46.8,29.71,NE,35,6.0,10.0,99,0.04,,---,0.15,VWS V14.01,2013-10-06 20:42:00,
2013-10-06 15:47:00,47.1,46.8,29.72,North,6,7.0,13.0,99,0.04,,---,0.15,VWS V14.01,2013-10-06 20:47:00,
2013-10-06 15:52:00,47.1,46.8,29.72,NNE,14,5.0,8.0,99,0.05,,---,0.16,VWS V14.01,2013-10-06 20:52:00,
2013-10-06 15:57:00,47.3,47.0,29.72,NNE,23,3.0,8.0,99,0.05,,---,0.16,VWS V14.01,2013-10-06 20:57:00,
2013-10-06 16:02:00,47.1,47.1,29.72,NE,34,2.0,8.0,100,0.05,,---,0.16,VWS V14.01,2013-10-06 21:02:00,
2013-10-06 16:07:00,47.1,46.8,29.72,NE,44,6.0,11.0,99,0.06,,---,0.17,VWS V14.01,2013-10-06 21:07:00,
2013-10-06 16:12:00,47.1,47.1,29.72,NE,42,5.0,7.0,100,0.05,,---,0.17,VWS V14.01,2013-10-06 21:12:00,
2013-10-06 16:17:00,47.1,47.1,29.72,NE,42,2.0,7.0,100,0.05,,---,0.17,VWS V14.01,2013-10-06 21:17:00,
2013-10-06 16:22:00,47.1,47.1,29.72,NNE,30,7.0,12.0,100,0.04,,---,0.17,VWS V14.01,2013-10-06 21:22:00,
2013-10-06 16:27:00,47.1,47.1,29.72,NE,56,6.0,12.0,100,0.04,,---,0.17,VWS V14.01,2013-10-06 21:27:00,
2013-10-06 16:32:00,47.1,47.1,29.72,NE,34,8.0,10.0,100,0.03,,---,0.17,VWS V14.01,2013-10-06 21:32:00,
2013-10-06 16:37:00,47.1,47.1,29.72,NE,49,6.0,11.0,100,0.03,,---,0.17,VWS V14.01,2013-10-06 21:37:00,
2013-10-06 16:42:00,47.4,47.4,29.72,NE,44,3.0,10.0,100,0.02,,---,0.17,VWS V14.01,2013-10-06 21:42:00,
2013-10-06 16:47:00,47.9,47.9,29.73,NE,49,5.0,10.0,100,0.02,,---,0.17,VWS V14.01,2013-10-06 21:47:00,
2013-10-06 16:52:00,48.3,48.3,29.73,NE,42,0.0,2.0,100,0.02,,---,0.17,VWS V14.01,2013-10-06 21:52:00,
2013-10-06 16:57:00,48.6,48.6,29.73,NE,49,7.0,7.0,100,0.02,,---,0.17,VWS V14.01,2013-10-06 21:57:00,
2013-10-06 17:02:00,48.5,48.5,29.73,NE,51,6.0,7.0,100,0.01,,---,0.17,VWS V14.01,2013-10-06 22:02:00,
2013-10-06 17:07:00,48.5,48.5,29.73,ENE,59,2.0,7.0,100,0.01,,---,0.17,VWS V14.01,2013-10-06 22:07:00,
2013-10-06 17:12:00,48.5,48.2,29.73,NNE,31,6.0,8.0,99,0.00,,---,0.17,VWS V14.01,2013-10-06 22:12:00,
2013-10-06 17:17:00,48.6,48.3,29.74,NE,47,2.0,8.0,99,0.00,,---,0.17,VWS V14.01,2013-10-06 22:17:00,
2013-10-06 17:22:00,49.2,49.2,29.74,NE,48,2.0,5.0,100,0.00,,---,0.17,VWS V14.01,2013-10-06 22:22:00,
2013-10-06 17:27:00,49.8,49.5,29.74,NE,47,2.0,6.0,99,0.00,,---,0.17,VWS V14.01,2013-10-06 22:27:00,
2013-10-06 17:32:00,50.1,49.6,29.73,NNE,28,3.0,3.0,98,0.00,,---,0.17,VWS V14.01,2013-10-06 22:32:00,
2013-10-06 17:36:00,50.2,49.7,29.73,NE,47,0.0,4.0,98,0.00,,---,0.17,VWS V14.01,2013-10-06 22:36:00,
2013-10-06 17:41:00,49.9,49.1,29.73,NNE,31,0.0,5.0,97,0.00,,---,0.17,VWS V14.01,2013-10-06 22:41:00,
2013-10-06 17:46:00,49.9,48.8,29.74,NE,40,3.0,7.0,96,0.00,,---,0.17,VWS V14.01,2013-10-06 22:46:00,
2013-10-06 17:51:00,50.2,49.1,29.74,NE,38,0.0,2.0,96,0.00,,---,0.17,VWS V14.01,2013-10-06 22:51:00,
2013-10-06 17:56:00,50.4,49.0,29.74,NNE,32,0.0,5.0,95,0.00,,---,0.17,VWS V14.01,2013-10-06 22:56:00,
2013-10-06 18:01:00,50.1,48.4,29.74,NE,34,0.0,1.0,94,0.00,,---,0.17,VWS V14.01,2013-10-06 23:01:00,
2013-10-06 18:06:00,49.9,48.2,29.74,NE,34,0.0,2.0,94,0.00,,---,0.17,VWS V14.01,2013-10-06 23:06:00,
2013-10-06 18:11:00,49.6,48.0,29.74,NNE,32,2.0,2.0,94,0.00,,---,0.17,VWS V14.01,2013-10-06 23:11:00,
2013-10-06 18:16:00,49.4,48.0,29.75,NNE,32,0.0,2.0,95,0.00,,---,0.17,VWS V14.01,2013-10-06 23:16:00,
2013-10-06 18:21:00,49.2,47.8,29.75,NNE,32,0.0,1.0,95,0.00,,---,0.17,VWS V14.01,2013-10-06 23:21:00,
2013-10-06 18:26:00,49.1,47.7,29.75,NNE,31,0.0,1.0,95,0.00,,---,0.17,VWS V14.01,2013-10-06 23:26:00,
2013-10-06 18:31:00,48.9,47.5,29.76,NNE,30,0.0,1.0,95,0.00,,---,0.17,VWS V14.01,2013-10-06 23:31:00,
2013-10-06 18:36:00,48.9,47.5,29.76,NNE,30,1.0,2.0,95,0.00,,---,0.17,VWS V14.01,2013-10-06 23:36:00,
2013-10-06 18:41:00,48.9,47.2,29.76,North,8,1.0,2.0,94,0.00,,---,0.17,VWS V14.01,2013-10-06 23:41:00,
2013-10-06 18:46:00,48.8,46.9,29.76,North,6,0.0,5.0,93,0.00,,---,0.17,VWS V14.01,2013-10-06 23:46:00,
2013-10-06 18:51:00,48.8,46.9,29.76,North,4,1.0,2.0,93,0.00,,---,0.17,VWS V14.01,2013-10-06 23:51:00,
2013-10-06 18:56:00,48.6,46.4,29.76,NNE,14,1.0,4.0,92,0.00,,---,0.17,VWS V14.01,2013-10-06 23:56:00,
2013-10-06 19:01:00,48.6,46.1,29.76,NE,34,3.0,3.0,91,0.00,,---,0.17,VWS V14.01,2013-10-07 00:01:00,
2013-10-06 19:06:00,48.5,46.0,29.76,NNE,32,0.0,6.0,91,0.00,,---,0.17,VWS V14.01,2013-10-07 00:06:00,
2013-10-06 19:11:00,48.5,45.7,29.76,NE,49,2.0,3.0,90,0.00,,---,0.17,VWS V14.01,2013-10-07 00:11:00,
2013-10-06 19:16:00,48.3,45.2,29.77,NNE,24,1.0,7.0,89,0.00,,---,0.17,VWS V14.01,2013-10-07 00:16:00,
2013-10-06 19:21:00,48.3,44.9,29.77,NNE,32,0.0,3.0,88,0.00,,---,0.17,VWS V14.01,2013-10-07 00:21:00,
2013-10-06 19:26:00,48.2,44.8,29.77,NNE,24,3.0,3.0,88,0.00,,---,0.17,VWS V14.01,2013-10-07 00:26:00,
2013-10-06 19:31:00,48.0,44.6,29.77,NE,40,2.0,2.0,88,0.00,,---,0.17,VWS V14.01,2013-10-07 00:31:00,
2013-10-06 19:36:00,47.9,44.5,29.77,North,11,0.0,5.0,88,0.00,,---,0.17,VWS V14.01,2013-10-07 00:36:00,
2013-10-06 19:41:00,47.9,44.5,29.77,North,8,0.0,3.0,88,0.00,,---,0.17,VWS V14.01,2013-10-07 00:41:00,
2013-10-06 19:46:00,47.7,44.3,29.78,NNE,25,1.0,5.0,88,0.00,,---,0.17,VWS V14.01,2013-10-07 00:46:00,
2013-10-06 19:51:00,47.7,44.3,29.78,NNE,23,0.0,2.0,88,0.00,,---,0.17,VWS V14.01,2013-10-07 00:51:00,
2013-10-06 19:56:00,47.4,44.0,29.78,NNE,23,0.0,2.0,88,0.00,,---,0.17,VWS V14.01,2013-10-07 00:56:00,
2013-10-06 20:01:00,47.3,44.2,29.78,NNE,20,3.0,3.0,89,0.00,,---,0.17,VWS V14.01,2013-10-07 01:01:00,
2013-10-06 20:06:00,47.4,44.0,29.78,NNE,14,0.0,5.0,88,0.00,,---,0.17,VWS V14.01,2013-10-07 01:06:00,
2013-10-06 20:11:00,47.7,44.0,29.78,NNE,17,1.0,1.0,87,0.00,,---,0.17,VWS V14.01,2013-10-07 01:11:00,
2013-10-06 20:16:00,47.7,44.0,29.78,NNE,17,1.0,2.0,87,0.00,,---,0.17,VWS V14.01,2013-10-07 01:16:00,
2013-10-06 20:21:00,47.7,44.0,29.78,North,0,4.0,4.0,87,0.00,,---,0.17,VWS V14.01,2013-10-07 01:21:00,
2013-10-06 20:26:00,48.0,44.3,29.78,North,7,3.0,8.0,87,0.00,,---,0.17,VWS V14.01,2013-10-07 01:26:00,
2013-10-06 20:31:00,48.2,44.5,29.78,North,8,3.0,6.0,87,0.00,,---,0.17,VWS V14.01,2013-10-07 01:31:00,
2013-10-06 20:36:00,48.3,44.3,29.78,North,354,6.0,7.0,86,0.00,,---,0.17,VWS V14.01,2013-10-07 01:36:00,
2013-10-06 20:41:00,48.3,44.3,29.78,NNE,18,1.0,5.0,86,0.00,,---,0.17,VWS V14.01,2013-10-07 01:41:00,
2013-10-06 20:46:00,48.3,44.3,29.78,North,0,3.0,11.0,86,0.00,,---,0.17,VWS V14.01,2013-10-07 01:46:00,
2013-10-06 20:51:00,48.5,44.2,29.78,NNE,25,3.0,11.0,85,0.00,,---,0.17,VWS V14.01,2013-10-07 01:51:00,
2013-10-06 20:56:00,48.3,44.0,29.78,NNE,13,3.0,11.0,85,0.00,,---,0.17,VWS V14.01,2013-10-07 01:56:00,
2013-10-06 21:01:00,48.3,44.0,29.78,North,8,5.0,6.0,85,0.00,,---,0.17,VWS V14.01,2013-10-07 02:01:00,
2013-10-06 21:06:00,48.5,43.9,29.78,NNE,23,7.0,9.0,84,0.00,,---,0.17,VWS V14.01,2013-10-07 02:06:00,
2013-10-06 21:11:00,48.5,43.6,29.78,North,6,3.0,11.0,83,0.00,,---,0.17,VWS V14.01,2013-10-07 02:11:00,
2013-10-06 21:16:00,48.5,43.6,29.78,North,6,5.0,11.0,83,0.00,,---,0.17,VWS V14.01,2013-10-07 02:16:00,
2013-10-06 21:21:00,48.5,43.3,29.78,North,353,3.0,5.0,82,0.00,,---,0.17,VWS V14.01,2013-10-07 02:21:00,
2013-10-06 21:26:00,48.6,43.4,29.78,North,4,2.0,12.0,82,0.00,,---,0.17,VWS V14.01,2013-10-07 02:26:00,
2013-10-06 21:31:00,48.6,43.0,29.79,North,3,3.0,10.0,81,0.00,,---,0.17,VWS V14.01,2013-10-07 02:31:00,
2013-10-06 21:36:00,48.8,42.9,29.79,NNE,31,3.0,11.0,80,0.00,,---,0.17,VWS V14.01,2013-10-07 02:36:00,
2013-10-06 21:41:00,48.6,42.7,29.79,North,6,2.0,8.0,80,0.00,,---,0.17,VWS V14.01,2013-10-07 02:41:00,
2013-10-06 21:46:00,48.6,42.7,29.80,North,1,1.0,8.0,80,0.00,,---,0.17,VWS V14.01,2013-10-07 02:46:00,
2013-10-06 21:51:00,48.3,42.8,29.80,North,0,3.0,6.0,81,0.00,,---,0.17,VWS V14.01,2013-10-07 02:51:00,
2013-10-06 21:56:00,48.2,42.7,29.80,North,357,1.0,10.0,81,0.00,,---,0.17,VWS V14.01,2013-10-07 02:56:00,
2013-10-06 22:01:00,48.2,42.7,29.80,North,8,1.0,6.0,81,0.00,,---,0.17,VWS V14.01,2013-10-07 03:01:00,
2013-10-06 22:06:00,48.0,42.1,29.80,NNE,23,5.0,9.0,80,0.00,,---,0.17,VWS V14.01,2013-10-07 03:06:00,
2013-10-06 22:11:00,48.0,42.5,29.80,NNW,346,1.0,5.0,81,0.00,,---,0.17,VWS V14.01,2013-10-07 03:11:00,
2013-10-06 22:16:00,48.0,42.5,29.80,North,0,2.0,8.0,81,0.00,,---,0.17,VWS V14.01,2013-10-07 03:16:00,
2013-10-06 22:21:00,47.9,42.0,29.80,NNW,340,6.0,8.0,80,0.00,,---,0.17,VWS V14.01,2013-10-07 03:21:00,
2013-10-06 22:26:00,47.7,42.2,29.80,NNW,337,1.0,8.0,81,0.00,,---,0.17,VWS V14.01,2013-10-07 03:26:00,
2013-10-06 22:31:00,47.7,42.2,29.81,North,356,0.0,5.0,81,0.00,,---,0.17,VWS V14.01,2013-10-07 03:31:00,
2013-10-06 22:36:00,47.6,42.1,29.81,North,6,1.0,6.0,81,0.00,,---,0.17,VWS V14.01,2013-10-07 03:36:00,
2013-10-06 22:41:00,47.7,41.8,29.81,North,0,1.0,3.0,80,0.00,,---,0.17,VWS V14.01,2013-10-07 03:41:00,
2013-10-06 22:46:00,47.9,41.7,29.80,North,0,0.0,6.0,79,0.00,,---,0.17,VWS V14.01,2013-10-07 03:46:00,
2013-10-06 22:51:00,47.9,41.7,29.80,North,356,1.0,6.0,79,0.00,,---,0.17,VWS V14.01,2013-10-07 03:51:00,
2013-10-06 22:56:00,47.7,41.5,29.80,North,7,6.0,6.0,79,0.00,,---,0.17,VWS V14.01,2013-10-07 03:56:00,
2013-10-06 23:01:00,47.9,41.7,29.80,NE,38,3.0,4.0,79,0.00,,---,0.17,VWS V14.01,2013-10-07 04:01:00,
2013-10-06 23:06:00,48.0,41.5,29.80,North,359,0.0,10.0,78,0.00,,---,0.17,VWS V14.01,2013-10-07 04:06:00,
2013-10-06 23:11:00,48.0,41.5,29.80,North,359,1.0,4.0,78,0.00,,---,0.17,VWS V14.01,2013-10-07 04:11:00,
2013-10-06 23:16:00,48.0,41.5,29.80,North,0,2.0,4.0,78,0.00,,---,0.17,VWS V14.01,2013-10-07 04:16:00,
2013-10-06 23:21:00,47.6,41.8,29.80,North,10,0.0,0.0,80,0.00,,---,0.17,VWS V14.01,2013-10-07 04:21:00,
2013-10-06 23:26:00,47.1,41.3,29.80,North,0,0.0,5.0,80,0.00,,---,0.17,VWS V14.01,2013-10-07 04:26:00,
2013-10-06 23:31:00,47.1,41.3,29.80,North,357,2.0,2.0,80,0.00,,---,0.17,VWS V14.01,2013-10-07 04:31:00,
2013-10-06 23:36:00,46.8,41.3,29.80,NNE,14,0.0,6.0,81,0.00,,---,0.17,VWS V14.01,2013-10-07 04:36:00,
2013-10-06 23:41:00,46.5,41.3,29.80,NNE,20,0.0,0.0,82,0.00,,---,0.17,VWS V14.01,2013-10-07 04:41:00,
2013-10-06 23:46:00,46.2,41.0,29.80,NNE,25,0.0,1.0,82,0.00,,---,0.17,VWS V14.01,2013-10-07 04:46:00,
2013-10-06 23:51:00,46.0,41.1,29.80,NNE,23,0.0,1.0,83,0.00,,---,0.17,VWS V14.01,2013-10-07 04:51:00,
2013-10-06 23:56:00,45.8,40.9,29.80,North,0,0.0,3.0,83,0.00,,---,0.17,VWS V14.01,2013-10-07 04:56:00,